Weather History for Cherry Point, NC

Change the Weather History Date:

Wednesday, February 6, 2013

  Actual Average Record
Temperature  
Mean Temperature 50 °F -  
Max Temperature 64 °F 54 °F 75 °F (2008)
Min Temperature 36 °F 34 °F 15 °F (2009)
Degree Days  
Heating Degree Days 15    
Moisture  
Dew Point 37 °F    
Average Humidity 65    
Maximum Humidity 89    
Minimum Humidity 30    
Precipitation  
Precipitation 0.00 in - - ()
Sea Level Pressure  
Sea Level Pressure 30.13 in    
Wind  
Wind Speed 3 mph ()    
Max Wind Speed 15 mph    
Max Gust Speed 22 mph    
Visibility 9.0 miles    
Events Fog    
Averages and records for this station are not official NWS values.
T = Trace of Precipitation, MM = Missing Value Source: Averaged Metar Reports

Daily Weather History Graph

Daily Weather History Graph

Search for Another Location

Airport:

Trip Planner

Search our weather history database for the weather conditions in past years. The results will help you decide how hot, cold, wet, or windy it might be!

Date:

Astronomy

Feb. 06, 2013 Rise Set
Actual Time 7:01 AM EST 5:41 PM EST
Civil Twilight 6:35 AM EST 6:08 PM EST
Nautical Twilight 6:05 AM EST 6:38 PM EST
Astronomical Twilight 5:36 AM EST 7:07 PM EST
Moon 3:39 AM EST (2/6) 2:02 PM EST (2/6)
Length of Visible Light 11h 32m
Length of Day
10h 39m
Waning Crescent, 17% of the Moon is Illuminated
Feb 6
Waning Crescent
Feb 10
New
Feb 17
First Quarter
Feb 25
Full
Mar 4
Last Quarter

Hourly Weather History & Observations

Time (EST) Temp. Windchill Dew Point Humidity Pressure Visibility Wind Dir Wind Speed Gust Speed Precip Events Conditions
12:54 AM 45.0 °F 41.8 °F 39.9 °F 82% 29.98 in 9.0 mi SW 5.8 mph - N/A   Clear
1:54 AM 43.0 °F - 37.9 °F 82% 29.99 in 9.0 mi Calm Calm - N/A   Clear
2:54 AM 43.0 °F - 39.0 °F 86% 29.99 in 9.0 mi Calm Calm - N/A   Clear
3:54 AM 41.0 °F 39.0 °F 36.0 °F 82% 29.99 in 9.0 mi WSW 3.5 mph - N/A   Clear
4:54 AM 37.9 °F - 35.1 °F 89% 30.02 in 7.0 mi Calm Calm - N/A   Clear
5:54 AM 37.9 °F - 34.0 °F 86% 30.05 in 8.0 mi Calm Calm - N/A   Clear
6:54 AM 36.0 °F - 33.1 °F 89% 30.07 in 5.0 mi Calm Calm - N/A   Clear
7:54 AM 37.9 °F - 35.1 °F 89% 30.11 in 6.0 mi Calm Calm - N/A Fog Clear
8:54 AM 50.0 °F - 42.1 °F 74% 30.13 in 6.0 mi Calm Calm - N/A   Clear
9:54 AM 55.9 °F - 39.9 °F 55% 30.15 in 9.0 mi Calm Calm - N/A   Clear
10:54 AM 61.0 °F - 34.0 °F 36% 30.16 in 10.0 mi North 8.1 mph - N/A   Clear
11:54 AM 62.1 °F - 34.0 °F 35% 30.15 in 10.0 mi North 5.8 mph - N/A   Clear
12:54 PM 63.0 °F - 33.1 °F 33% 30.13 in 10.0 mi Calm Calm - N/A   Clear
1:54 PM 64.0 °F - 33.1 °F 31% 30.12 in 10.0 mi NNW 3.5 mph - N/A   Clear
2:54 PM 64.9 °F - 34.0 °F 32% 30.12 in 10.0 mi Variable 4.6 mph - N/A   Clear
3:54 PM 64.0 °F - 32.0 °F 30% 30.13 in 10.0 mi NNE 4.6 mph - N/A   Clear
4:54 PM 59.0 °F - 35.1 °F 41% 30.14 in 10.0 mi NE 8.1 mph - N/A   Clear
5:54 PM 55.0 °F - 35.1 °F 47% 30.17 in 10.0 mi ESE 3.5 mph - N/A   Clear
6:54 PM 51.1 °F - 36.0 °F 56% 30.19 in 10.0 mi Calm Calm - N/A   Clear
7:54 PM 50.0 °F - 41.0 °F 71% 30.23 in 10.0 mi ENE 10.4 mph - N/A   Clear
8:54 PM 48.9 °F - 42.1 °F 77% 30.25 in 10.0 mi NE 15.0 mph 21.9 mph N/A   Clear
9:54 PM 48.0 °F - 42.1 °F 80% 30.26 in 10.0 mi ENE 9.2 mph - N/A   Clear
10:54 PM 46.9 °F - 42.1 °F 83% 30.26 in 10.0 mi ENE 9.2 mph - N/A   Clear
11:54 PM 46.9 °F - 42.1 °F 83% 30.26 in 10.0 mi ENE 8.1 mph - N/A   Clear